Weather Roundup
Issued by NWS Chicago, IL

Home | Current Version | Previous Version | Text Only | Print | Product List | Glossary On
Versions: 1 2 3 4 5 6 7 8 9 10 11 12 13 14 15 16 17 18 19 20 21 22 23 24 25 26 27 28 29 30 31 32 33 34 35 36 37 38 39 40 41 42 43 44 45 46 47 48 49 50
000
NZUS59 KLOT 261908
HRRLOT

CHICAGO AREA WEATHER ROUNDUP
NATIONAL WEATHER SERVICE CHICAGO/ROMEOVILLE IL
200 PM CDT SUN MAR 26 2017

NOTE: "FAIR" INDICATES FEW OR NO CLOUDS BELOW 12,000 FEET WITH NO
SIGNIFICANT WEATHER AND/OR OBSTRUCTIONS TO VISIBILITY.

* THESE STATIONS ARE NOT UNDER NWS QUALITY CONTROL. THEY ALSO MAY NOT
  REPORT WEATHER SUCH AS PRECIPITATION OR FOG.

ILZ005-006-012>014-019>023-262000-
NORTHEAST ILLINOIS

CITY           SKY/WX    TMP DP  RH WIND       PRES   REMARKS
OHARE          CLOUDY    61  52  72 SW9       29.80F
MIDWAY         CLOUDY    61  53  75 SW10      29.81F
AURORA         CLOUDY    60  52  74 SW14      29.82S
LANSING*       CLOUDY    61  54  78 SW16      29.82F
JOLIET*        CLOUDY    60  52  74 SW10      29.83S
WAUKEGAN       FOG       49  49 100 CALM      29.81F VSB 1/4
DUPAGE AIRPORT CLOUDY    59  54  83 SW14      29.81S
WHEELING       LGT RAIN  58  56  93 SW6       29.82S
KANKAKEE*      CLOUDY    64  54  70 SW18G26   29.84S
MORRIS*        CLOUDY    57  52  81 SW7       29.81F
LEWIS AIRPORT* CLOUDY    59  55  85 SW15      29.82S
$$

WIZ051-052-058>065-066-070>072-262000-
SOUTHEAST WISCONSIN

CITY           SKY/WX    TMP DP  RH WIND       PRES   REMARKS
MILWAUKEE      LGT RAIN  43  41  93 N5        29.83F VSB 1/4
KENOSHA*       CLOUDY    49  48  97 CALM      29.82F FOG
RACINE*        CLOUDY    47  45  93 N3        29.83F FOG
WAUKESHA       LGT RAIN  41  41 100 E7        29.84S FOG
WEST BEND      LGT RAIN  41  41 100 E7        29.84S
$$

INZ001>003-010>013-019-020-262000-
NORTHWEST INDIANA

CITY           SKY/WX    TMP DP  RH WIND       PRES   REMARKS
GARY*          CLOUDY    64  54  68 SW14      29.82F
MICHIGAN CITY* NOT AVBL
RENSSELAER*    NOT AVBL
VALPARAISO     LGT RAIN  59  57  93 S9        29.84S FOG
$$

LMZ740>746-262000-
SOUTHERN LAKE MICHIGAN

STATION/POSITION TIME  SKY/WX   TEMP WIND        PRES    VSBY
                                AIR  DIR/SP/G
                 (UTC)          (F)  (DEG/KT/KT) (MB)    (MI)
HARRISON CRIB    1840            55  130/  6/  6   N/A
BURNHAM HARBOR   1900            49  130/  3/  4   N/A
CALUMET HARBOR   1848            58  200/  7/  9 1009.1F
BURNS HARBOR     1840            58  220/ 10/ 21 1010.5F
MICHIGAN CITY    1840            58  160/  7/  8   N/A
$$

ABBREVIATIONS USED IN REMARKS
   TC - TEMPERATURE IN CELSIUS
  WCI - WIND CHILL INDEX
   HX - HEAT INDEX
  VSB - VISIBILITY
$$




USA.gov is the U.S. government's official web portal to all federal, state and local government web resources and services.